Weather History for KMYP - November, 2013

Change the Weather History Date:

Friday, November 15, 2013

  Actual Average (KGUC) Record (KGUC)
Temperature  
Mean Temperature 24 °F -  
Max Temperature 28 °F 39 °F 60 °F (1999)
Min Temperature 19 °F 12 °F -4 °F (2006)
Degree Days  
Heating Degree Days 42    
Moisture  
Dew Point 15 °F    
Average Humidity 72    
Maximum Humidity 100    
Minimum Humidity 51    
Precipitation  
Precipitation 0.00 in - - ()
Sea Level Pressure  
Sea Level Pressure 29.93 in    
Wind  
Wind Speed 27 mph (SW)    
Max Wind Speed 51 mph    
Max Gust Speed 32 mph    
Visibility 7 miles    
Events Fog , Snow    
Averages and records for this station are not official NWS values.
T = Trace of Precipitation, MM = Missing Value Source: NWS Daily Summary

Daily Weather History Graph

Daily Weather History Graph

Search for Another Location

Airport or City:

Trip Planner

Search our weather history database for the weather conditions in past years. The results will help you decide how hot, cold, wet, or windy it might be!

Date:

Astronomy

Nov. 15, 2013 Rise Set
Actual Time 6:47 AM MST 4:52 PM MST
Civil Twilight 6:19 AM MST 5:20 PM MST
Nautical Twilight 5:46 AM MST 5:52 PM MST
Astronomical Twilight 5:15 AM MST 6:23 PM MST
Moon 3:49 PM MST (11/15) 4:47 AM MST (11/15)
Length of Visible Light 11h 01m
Length of Day
10h 04m
Waxing Gibbous, 97% of the Moon is Illuminated
Nov 15
Waxing Gibbous
Nov 17
Full
Nov 25
Last Quarter
Dec 2
New
Dec 9
First Quarter

Hourly Weather History & Observations

Time (MST) Temp. Windchill Dew Point Humidity Pressure Visibility Wind Dir Wind Speed Gust Speed Precip Events Conditions
12:16 AM 21.2 °F - 12.2 °F 68% 30.09 in 10.0 mi North - - N/A   Clear
12:36 AM 21.2 °F - 12.2 °F 68% 30.08 in 10.0 mi North - - N/A   Clear
12:56 AM 21.2 °F - 12.2 °F 68% 30.07 in 10.0 mi North - - N/A   Clear
1:16 AM 21.2 °F - 12.2 °F 68% 30.06 in 10.0 mi North - - N/A   Clear
1:36 AM 21.2 °F - 10.4 °F 63% 30.06 in 10.0 mi North - - N/A   Clear
1:56 AM 21.2 °F - 10.4 °F 63% 30.07 in 10.0 mi North - - N/A   Clear
2:16 AM 21.2 °F - 12.2 °F 68% 30.07 in 10.0 mi North - - N/A   Clear
2:36 AM 21.2 °F - 12.2 °F 68% 30.06 in 10.0 mi North - - N/A   Clear
2:56 AM 21.2 °F - 12.2 °F 68% 30.05 in 10.0 mi North - - N/A   Clear
3:16 AM 19.4 °F - 12.2 °F 74% 30.04 in 10.0 mi North - - N/A   Clear
3:36 AM 21.2 °F - 12.2 °F 68% 30.04 in 10.0 mi North - - N/A   Clear
3:56 AM 19.4 °F - 10.4 °F 68% 30.04 in 10.0 mi North - - N/A   Clear
4:16 AM 21.2 °F - 10.4 °F 63% 30.04 in 10.0 mi North - - N/A   Mostly Cloudy
4:36 AM 21.2 °F - 12.2 °F 68% 30.03 in 10.0 mi North - - N/A   Overcast
4:56 AM 21.2 °F - 10.4 °F 63% 30.03 in 10.0 mi North - - N/A   Overcast
5:16 AM 21.2 °F - 10.4 °F 63% 30.02 in 10.0 mi North - - N/A   Overcast
5:36 AM 21.2 °F - 10.4 °F 63% 30.02 in 10.0 mi North - - N/A   Overcast
5:56 AM 21.2 °F - 10.4 °F 63% 30.02 in 10.0 mi North - - N/A   Overcast
6:16 AM 21.2 °F - 10.4 °F 63% 30.02 in 10.0 mi North - - N/A   Overcast
6:36 AM 21.2 °F - 10.4 °F 63% 30.02 in 10.0 mi North - - N/A   Overcast
6:56 AM 21.2 °F - 8.6 °F 58% 30.03 in 10.0 mi North - - N/A   Overcast
7:16 AM 21.2 °F - 8.6 °F 58% 30.02 in 10.0 mi North - - N/A   Overcast
7:36 AM 21.2 °F - 10.4 °F 63% 30.03 in 10.0 mi North - - N/A   Overcast
7:56 AM 21.2 °F - 10.4 °F 63% 30.03 in 10.0 mi North - - N/A   Overcast
8:16 AM 23.0 °F - 10.4 °F 59% 30.03 in 10.0 mi North - - N/A   Overcast
8:36 AM 23.0 °F - 10.4 °F 59% 30.03 in 10.0 mi North - - N/A   Overcast
8:56 AM 23.0 °F - 12.2 °F 63% 30.02 in 10.0 mi North - - N/A   Overcast
9:16 AM 23.0 °F - 12.2 °F 63% 30.02 in 10.0 mi North - - N/A   Overcast
9:36 AM 24.8 °F - 12.2 °F 59% 30.02 in 10.0 mi North - - N/A   Overcast
9:56 AM 26.6 °F 12.7 °F 12.2 °F 55% 30.02 in 10.0 mi SSW 20.7 mph 26.5 mph N/A   Overcast
10:16 AM 28.4 °F 14.1 °F 12.2 °F 51% 30.02 in 10.0 mi SSW 24.2 mph 29.9 mph N/A   Mostly Cloudy
10:36 AM 28.4 °F 13.5 °F 12.2 °F 51% 30.01 in 10.0 mi SW 26.5 mph 32.2 mph N/A   Mostly Cloudy
10:56 AM 28.4 °F - 12.2 °F 51% 30.00 in 10.0 mi North - - N/A   Mostly Cloudy
11:16 AM 28.4 °F 15.1 °F 12.2 °F 51% 29.99 in 10.0 mi SSW 20.7 mph 25.3 mph N/A   Mostly Cloudy
11:36 AM 28.4 °F 15.8 °F 14.0 °F 55% 29.98 in 10.0 mi SSW 18.4 mph 25.3 mph N/A   Overcast
11:56 AM 28.4 °F 13.8 °F 12.2 °F 51% 29.96 in 10.0 mi SSW 25.3 mph 29.9 mph N/A   Overcast
12:16 PM 28.4 °F - 14.0 °F 55% 29.94 in 10.0 mi North - - N/A   Overcast
12:36 PM 28.4 °F - 14.0 °F 55% 29.92 in 10.0 mi North - - N/A   Overcast
12:56 PM 28.4 °F - 14.0 °F 55% 29.91 in 10.0 mi North - - N/A   Overcast
1:16 PM 28.4 °F - 12.2 °F 51% 29.90 in 10.0 mi North - - N/A   Overcast
1:36 PM 28.4 °F - 12.2 °F 51% 29.90 in 10.0 mi North - - N/A   Overcast
1:56 PM 26.6 °F - 17.6 °F 69% 29.89 in 7.0 mi North - - N/A Snow Light Snow
2:16 PM 26.6 °F - 17.6 °F 69% 29.88 in 5.0 mi North - - N/A Snow Light Snow
2:36 PM 26.6 °F - 17.6 °F 69% 29.87 in 10.0 mi North - - N/A   Overcast
2:56 PM 28.4 °F - 15.8 °F 59% 29.86 in 10.0 mi North - - N/A   Overcast
3:16 PM 28.4 °F - 14.0 °F 55% 29.85 in 10.0 mi North - - N/A   Overcast
3:36 PM 26.6 °F - 14.0 °F 59% 29.86 in 10.0 mi North - - N/A   Overcast
3:56 PM 26.6 °F - 15.8 °F 64% 29.84 in 10.0 mi North - - N/A Snow Light Snow
4:16 PM 26.6 °F - 19.4 °F 74% 29.83 in 10.0 mi North - - N/A Snow Light Snow
4:36 PM 24.8 °F - 21.2 °F 86% 29.83 in 2.5 mi North - - N/A Snow Light Snow
4:56 PM 23.0 °F - 21.2 °F 93% 29.83 in 10.0 mi North - - N/A   Overcast
5:16 PM 23.0 °F - 23.0 °F 100% 29.83 in 5.0 mi North - - N/A   Overcast
5:36 PM 23.0 °F - 23.0 °F 100% 29.82 in 0.2 mi North - - N/A Fog Light Freezing Fog
5:56 PM 23.0 °F - 23.0 °F 100% 29.82 in 0.2 mi North - - N/A Snow Heavy Snow
6:16 PM 23.0 °F 2.4 °F 23.0 °F 100% 29.81 in 0.2 mi West 44.9 mph - N/A Snow Heavy Snow
6:36 PM 23.0 °F 2.4 °F 21.2 °F 93% 29.81 in 0.2 mi West 44.9 mph - N/A Snow Heavy Snow
6:56 PM 23.0 °F - 21.2 °F 93% 29.81 in 0.2 mi North - - N/A Snow Heavy Snow
7:16 PM 23.0 °F - 21.2 °F 93% 29.81 in 0.2 mi North - - N/A Snow Heavy Snow
7:36 PM 23.0 °F - 21.2 °F 93% 29.80 in 0.2 mi North - - N/A Snow Heavy Snow
7:56 PM 23.0 °F - 21.2 °F 93% 29.80 in 0.2 mi North - - N/A Snow Heavy Snow
8:16 PM 23.0 °F - 21.2 °F 93% 29.79 in 0.2 mi North - - N/A Snow Heavy Snow
8:36 PM 23.0 °F - 21.2 °F 93% 29.79 in 0.2 mi North - - N/A Snow Heavy Snow
8:56 PM 23.0 °F 1.5 °F 21.2 °F 93% 29.79 in 0.2 mi WSW 50.6 mph - N/A Snow Heavy Snow
9:16 PM 23.0 °F - 21.2 °F 93% 29.79 in 0.2 mi North - - N/A Snow Heavy Snow
9:36 PM 23.0 °F - 21.2 °F 93% 29.78 in 0.2 mi North - - N/A Snow Heavy Snow
9:56 PM 23.0 °F - 21.2 °F 93% 29.78 in 0.2 mi North - - N/A Snow Heavy Snow
10:16 PM 23.0 °F - 21.2 °F 93% 29.78 in 0.2 mi North - - N/A Snow Heavy Snow
10:36 PM 23.0 °F - 21.2 °F 93% 29.75 in 0.2 mi North - - N/A Snow Heavy Snow
10:56 PM 23.0 °F - 21.2 °F 93% 29.75 in 0.2 mi North - - N/A Snow Heavy Snow
11:16 PM 21.2 °F - 19.4 °F 93% 29.76 in 0.2 mi North - - N/A Snow Heavy Snow
11:36 PM 21.2 °F - 19.4 °F 93% 29.74 in 0.2 mi North - - N/A Snow Heavy Snow
11:56 PM 21.2 °F - 19.4 °F 93% 29.74 in 0.2 mi North - - N/A Snow Heavy Snow